When you browse on this site, cookies collect data to enhance your experience and personalize the content and advertising you see.
Visit our Privacy Policy to learn more. By continuing to use the site, you agree to this use of cookies and data.
  • In United Kingdom
  • List of Countries
  • For 7 days
  • Water Temperature
  • Satellite Maps
  • Weather Map
  • Weather Widgets
  • user-avatar
    Login

    Hourly Weather Namibe

    Today, 17 December, Monday

    Time Temperature Precipitation Wind Pressure Humidity
    00:00 +25°C° 0 mm 1 mps 759 mmHg 78%
    01:00 +25°C° 0 mm 1 mps 759 mmHg 81%
    02:00 +25°C° 0 mm 1 mps 759 mmHg 81%
    03:00 +25°C° 0 mm 1 mps 759 mmHg 82%
    04:00 +25°C° 0 mm 1 mps 759 mmHg 82%
    05:00 +23°C° 0 mm 0 mps 759 mmHg 82%
    06:00 +23°C° 0 mm 0 mps 759 mmHg 81%
    07:00 +23°C° 0 mm 0 mps 759 mmHg 81%
    08:00 +27°C° 0 mm 1 mps 760 mmHg 72%
    09:00 +29°C° 0 mm 2 mps 760 mmHg 63%
    10:00 +31°C° 0 mm 3 mps 760 mmHg 53%
    11:00 +33°C° 0 mm 4 mps 759 mmHg 51%
    12:00 +34°C° 0 mm 5 mps 758 mmHg 49%
    13:00 +35°C° 0 mm 6 mps 758 mmHg 47%
    14:00 +34°C° 0 mm 5 mps 758 mmHg 49%
    15:00 +34°C° 0 mm 5 mps 757 mmHg 51%
    16:00 +33°C° 0 mm 5 mps 757 mmHg 54%
    17:00 +32°C° 0 mm 5 mps 757 mmHg 59%
    18:00 +29°C° 0 mm 4 mps 758 mmHg 65%
    19:00 +28°C° 0 mm 4 mps 758 mmHg 71%
    20:00 +27°C° 0 mm 3 mps 759 mmHg 73%
    21:00 +27°C° 0 mm 3 mps 759 mmHg 76%
    22:00 +26°C° 0 mm 3 mps 760 mmHg 78%
    23:00 +26°C° 0 mm 2 mps 760 mmHg 79%

    Tomorrow, 18 December, Tuesday

    Time Temperature Precipitation Wind Pressure Humidity
    00:00 +26°C° 0 mm 2 mps 760 mmHg 79%
    01:00 +26°C° 0 mm 2 mps 759 mmHg 79%
    02:00 +26°C° 0 mm 2 mps 759 mmHg 79%
    03:00 +26°C° 0 mm 2 mps 759 mmHg 79%
    04:00 +26°C° 0 mm 1 mps 759 mmHg 79%
    05:00 +26°C° 0 mm 2 mps 759 mmHg 79%
    06:00 +26°C° 0 mm 2 mps 760 mmHg 79%
    07:00 +26°C° 0 mm 2 mps 760 mmHg 78%
    08:00 +28°C° 0 mm 2 mps 760 mmHg 70%
    09:00 +29°C° 0 mm 2 mps 760 mmHg 62%
    10:00 +31°C° 0 mm 2 mps 760 mmHg 54%
    11:00 +33°C° 0 mm 3 mps 760 mmHg 48%
    12:00 +35°C° 0 mm 4 mps 759 mmHg 43%
    13:00 +37°C° 0 mm 5 mps 758 mmHg 37%
    14:00 +36°C° 0 mm 5 mps 758 mmHg 39%
    15:00 +35°C° 0 mm 5 mps 758 mmHg 41%
    16:00 +34°C° 0 mm 6 mps 757 mmHg 43%
    17:00 +32°C° 0 mm 5 mps 758 mmHg 51%
    18:00 +29°C° 0 mm 4 mps 758 mmHg 58%
    19:00 +28°C° 0 mm 3 mps 759 mmHg 66%
    20:00 +27°C° 0 mm 3 mps 759 mmHg 68%
    21:00 +27°C° 0 mm 3 mps 760 mmHg 71%
    22:00 +26°C° 0 mm 3 mps 760 mmHg 73%
    23:00 +26°C° 0 mm 3 mps 760 mmHg 75%

    Day after tomorrow, 19 December, Wednesday

    Time Temperature Precipitation Wind Pressure Humidity
    00:00 +26°C° 0 mm 3 mps 760 mmHg 77%
    01:00 +25°C° 0 mm 3 mps 760 mmHg 78%
    02:00 +25°C° 0 mm 3 mps 759 mmHg 79%
    03:00 +25°C° 0 mm 2 mps 759 mmHg 79%
    04:00 +25°C° 0 mm 2 mps 759 mmHg 79%
    05:00 +25°C° 0 mm 2 mps 759 mmHg 78%
    06:00 +25°C° 0 mm 1 mps 760 mmHg 78%
    07:00 +25°C° 0 mm 1 mps 760 mmHg 77%
    08:00 +27°C° 0 mm 2 mps 760 mmHg 68%
    09:00 +29°C° 0 mm 2 mps 760 mmHg 58%
    10:00 +31°C° 0 mm 2 mps 760 mmHg 49%
    11:00 +33°C° 0 mm 3 mps 759 mmHg 46%
    12:00 +34°C° 0 mm 4 mps 759 mmHg 43%
    13:00 +35°C° 0 mm 5 mps 758 mmHg 39%
    14:00 +35°C° 0 mm 5 mps 758 mmHg 41%
    15:00 +34°C° 0 mm 6 mps 757 mmHg 43%
    16:00 +33°C° 0 mm 6 mps 757 mmHg 46%
    17:00 +30°C° 0 mm 5 mps 757 mmHg 52%
    18:00 +29°C° 0 mm 5 mps 758 mmHg 58%
    19:00 +27°C° 0 mm 5 mps 758 mmHg 65%
    20:00 +27°C° 0 mm 4 mps 759 mmHg 66%
    21:00 +26°C° 0 mm 4 mps 759 mmHg 68%
    22:00 +26°C° 0 mm 3 mps 760 mmHg 69%
    23:00 +26°C° 0 mm 3 mps 759 mmHg 69%

    20 December, Thursday

    Time Temperature Precipitation Wind Pressure Humidity
    00:00 +26°C° 0 mm 2 mps 759 mmHg 68%
    01:00 +26°C° 0 mm 2 mps 759 mmHg 67%
    02:00 +25°C° 0 mm 2 mps 758 mmHg 69%
    03:00 +25°C° 0 mm 2 mps 758 mmHg 70%
    04:00 +25°C° 0 mm 2 mps 758 mmHg 72%
    05:00 +25°C° 0 mm 2 mps 758 mmHg 72%
    06:00 +25°C° 0 mm 2 mps 759 mmHg 72%
    07:00 +25°C° 0 mm 2 mps 759 mmHg 72%
    08:00 +27°C° 0 mm 2 mps 759 mmHg 63%
    09:00 +29°C° 0 mm 2 mps 759 mmHg 54%
    10:00 +31°C° 0 mm 3 mps 759 mmHg 45%
    11:00 +33°C° 0 mm 4 mps 758 mmHg 44%
    12:00 +33°C° 0 mm 5 mps 758 mmHg 42%
    13:00 +34°C° 0 mm 6 mps 757 mmHg 41%
    14:00 +33°C° 0 mm 5 mps 757 mmHg 42%
    15:00 +33°C° 0 mm 5 mps 757 mmHg 43%
    16:00 +32°C° 0 mm 5 mps 756 mmHg 44%
    17:00 +29°C° 0 mm 5 mps 757 mmHg 49%
    18:00 +28°C° 0 mm 4 mps 758 mmHg 54%
    19:00 +26°C° 0 mm 4 mps 759 mmHg 60%
    20:00 +26°C° 0 mm 3 mps 759 mmHg 62%
    21:00 +25°C° 0 mm 3 mps 760 mmHg 65%
    22:00 +25°C° 0 mm 3 mps 760 mmHg 68%
    23:00 +25°C° 0 mm 3 mps 760 mmHg 69%

    21 December, Friday

    Time Temperature Precipitation Wind Pressure Humidity
    00:00 +24°C° 0 mm 3 mps 760 mmHg 69%
    01:00 +24°C° 0 mm 3 mps 759 mmHg 70%
    02:00 +24°C° 0 mm 2 mps 759 mmHg 71%
    03:00 +24°C° 0 mm 2 mps 759 mmHg 72%
    04:00 +24°C° 0 mm 2 mps 758 mmHg 73%
    05:00 +24°C° 0 mm 2 mps 759 mmHg 72%
    06:00 +24°C° 0 mm 2 mps 759 mmHg 72%
    07:00 +24°C° 0 mm 2 mps 759 mmHg 71%
    08:00 +26°C° 0 mm 2 mps 759 mmHg 62%
    09:00 +28°C° 0 mm 3 mps 759 mmHg 53%
    10:00 +30°C° 0 mm 3 mps 759 mmHg 44%
    11:00 +32°C° 0 mm 4 mps 758 mmHg 41%
    12:00 +33°C° 0 mm 5 mps 757 mmHg 39%
    13:00 +33°C° 0 mm 5 mps 757 mmHg 36%
    14:00 +33°C° 0 mm 6 mps 756 mmHg 37%
    15:00 +32°C° 0 mm 6 mps 756 mmHg 37%
    16:00 +32°C° 0 mm 6 mps 755 mmHg 38%
    17:00 +29°C° 0 mm 6 mps 756 mmHg 43%
    18:00 +28°C° 0 mm 6 mps 756 mmHg 49%
    19:00 +26°C° 0 mm 5 mps 757 mmHg 54%
    20:00 +26°C° 0 mm 4 mps 757 mmHg 56%
    21:00 +25°C° 0 mm 4 mps 758 mmHg 59%
    22:00 +25°C° 0 mm 3 mps 758 mmHg 61%
    23:00 +25°C° 0 mm 3 mps 758 mmHg 63%

    22 December, Saturday

    Time Temperature Precipitation Wind Pressure Humidity
    00:00 +24°C° 0 mm 3 mps 758 mmHg 64%
    01:00 +24°C° 0 mm 3 mps 757 mmHg 66%
    02:00 +22°C° 0 mm 3 mps 757 mmHg 69%
    03:00 +22°C° 0 mm 3 mps 757 mmHg 72%
    04:00 +21°C° 0 mm 3 mps 757 mmHg 75%
    05:00 +22°C° 0 mm 3 mps 758 mmHg 74%
    06:00 +23°C° 0 mm 2 mps 758 mmHg 74%
    07:00 +23°C° 0 mm 2 mps 759 mmHg 74%
    08:00 +25°C° 0 mm 3 mps 759 mmHg 64%
    09:00 +27°C° 0 mm 3 mps 759 mmHg 54%
    10:00 +29°C° 0 mm 4 mps 759 mmHg 44%
    11:00 +30°C° 0 mm 4 mps 758 mmHg 41%
    12:00 +32°C° 0 mm 5 mps 757 mmHg 38%
    13:00 +33°C° 0 mm 5 mps 757 mmHg 35%
    14:00 +32°C° 0 mm 5 mps 756 mmHg 36%
    15:00 +32°C° 0 mm 5 mps 756 mmHg 38%
    16:00 +30°C° 0 mm 5 mps 755 mmHg 39%
    17:00 +29°C° 0 mm 5 mps 756 mmHg 46%
    18:00 +27°C° 0 mm 5 mps 756 mmHg 53%
    19:00 +26°C° 0 mm 4 mps 757 mmHg 60%
    20:00 +25°C° 0 mm 4 mps 757 mmHg 63%
    21:00 +23°C° 0 mm 4 mps 758 mmHg 66%
    22:00 +24°C° 0 mm 3 mps 758 mmHg 70%
    23:00 +24°C° 0 mm 3 mps 758 mmHg 70%
    Show more